User: anonymous   Login
Location: Newark
(51.0967°N, 24.7917°E)
Time: 11:38:11
(UTC+00:00)
Language:

STARLINK-1285 - Orbit

View from above orbital plane
View from above orbital plane
View from above satellite
View from above satellite

Ground track
Ground track

The orbit data is extracted from the following two-line orbital elements,

1 45410U 20019BC  20190.91667824 -.01056045  00000-0 -69057-1 0  9992
2 45410  52.9982  68.2412 0001234  87.2449 287.4507 15.10149832 17913
Epoch (UTC): 08 July 2020 22:00:01
Eccentricity: 0.0001234
inclination: 52.9982°
perigee height: 535 km
apogee height: 536 km
right ascension of ascending node: 68.2412°
argument of perigee: 87.2449°
revolutions per day: 15.10149832
mean anomaly at epoch: 287.4507°
orbit number at epoch: 1791

The dashed part of the orbit path shows where the satellite is in the earth's shadow,  

DLR